| time (UTC) | temp C | wind direction | speed KPH | gust KPH | rain 1hr cm | rain 24hr cm | rain mn cm | humidity % | barometer mb |
| 20260503193507 | 18 | 180 | 3.2 | 12.9 | 0.00 | 0.00 | 0.00 | 33 | 1009.7 |
| 20260503193029 | 18 | 227 | 3.2 | 12.9 | 0.00 | 0.00 | 0.00 | 35 | 1009.7 |
| 20260503192509 | 18 | 349 | 4.8 | 12.9 | 0.00 | 0.00 | 0.00 | 33 | 1009.9 |
| 20260503192006 | 18 | 260 | 3.2 | 12.9 | 0.00 | 0.00 | 0.00 | 32 | 1010.0 |
| 20260503191518 | 18 | 195 | 6.4 | 12.9 | 0.00 | 0.00 | 0.00 | 31 | 1010.0 |
| 20260503191006 | 18 | 186 | 1.6 | 14.5 | 0.00 | 0.00 | 0.00 | 33 | 1010.2 |
| 20260503190512 | 18 | 241 | 4.8 | 14.5 | 0.00 | 0.00 | 0.00 | 32 | 1010.3 |
| 20260503190030 | 18 | 267 | 1.6 | 11.3 | 0.00 | 0.00 | 0.00 | 33 | 1010.2 |
| 20260503185507 | 18 | 219 | 3.2 | 17.7 | 0.00 | 0.00 | 0.00 | 33 | 1010.4 |
| 20260503185003 | 17 | 201 | 6.4 | 16.1 | 0.00 | 0.00 | 0.00 | 33 | 1010.3 |
| 20260503184504 | 17 | 194 | 3.2 | 22.5 | 0.00 | 0.00 | 0.00 | 35 | 1010.4 |
| 20260503184006 | 17 | 222 | 4.8 | 16.1 | 0.00 | 0.00 | 0.00 | 35 | 1010.5 |
| 20260503183506 | 16 | 324 | 3.2 | 9.7 | 0.00 | 0.00 | 0.00 | 35 | 1010.6 |
| 20260503183007 | 16 | 277 | 3.2 | 11.3 | 0.00 | 0.00 | 0.00 | 35 | 1010.7 |
| 20260503182505 | 16 | 248 | 3.2 | 12.9 | 0.00 | 0.00 | 0.00 | 34 | 1010.7 |
| 20260503182014 | 16 | 270 | 3.2 | 12.9 | 0.00 | 0.00 | 0.00 | 36 | 1010.8 |
| 20260503181513 | 16 | 186 | 3.2 | 8.0 | 0.00 | 0.00 | 0.00 | 36 | 1010.9 |
| 20260503181009 | 16 | 160 | 3.2 | 11.3 | 0.00 | 0.00 | 0.00 | 35 | 1011.0 |
| 20260503180506 | 16 | 251 | 3.2 | 11.3 | 0.00 | 0.00 | 0.00 | 37 | 1011.0 |
| 20260503180021 | 16 | 267 | 3.2 | 12.9 | 0.00 | 0.00 | 0.00 | 35 | 1011.1 |
| 20260503175506 | 16 | 238 | 4.8 | 12.9 | 0.00 | 0.00 | 0.00 | 34 | 1011.3 |
| 20260503175008 | 16 | 250 | 4.8 | 12.9 | 0.00 | 0.00 | 0.00 | 34 | 1011.3 |
| 20260503174527 | 17 | 210 | 1.6 | 8.0 | 0.00 | 0.00 | 0.00 | 36 | 1011.4 |
| 20260503174003 | 17 | 263 | 1.6 | 9.7 | 0.00 | 0.00 | 0.00 | 38 | 1011.4 |
| 20260503173504 | 16 | 309 | 3.2 | 11.3 | 0.00 | 0.00 | 0.00 | 38 | 1011.5 |
| 20260503173016 | 16 | 130 | 3.2 | 11.3 | 0.00 | 0.00 | 0.00 | 36 | 1011.5 |
| 20260503172506 | 16 | 360 | 3.2 | 12.9 | 0.00 | 0.00 | 0.00 | 37 | 1011.6 |
| 20260503172007 | 16 | 225 | 4.8 | 12.9 | 0.00 | 0.00 | 0.00 | 37 | 1011.7 |
| 20260503171514 | 15 | 209 | 4.8 | 12.9 | 0.00 | 0.00 | 0.00 | 35 | 1011.9 |
| 20260503171007 | 16 | 275 | 6.4 | 12.9 | 0.00 | 0.00 | 0.00 | 37 | 1012.0 |
| 20260503170508 | 15 | 257 | 1.6 | 9.7 | 0.00 | 0.00 | 0.00 | 39 | 1012.1 |
| 20260503151005 | 15 | 230 | 3.2 | 14.5 | 0.00 | 0.00 | 0.00 | 38 | 1012.8 |
| 20260503150505 | 15 | 225 | 3.2 | 11.3 | 0.00 | 0.00 | 0.00 | 38 | 1012.9 |
| 20260503131008 | 10 | 259 | 3.2 | 6.4 | 0.00 | 0.00 | 0.00 | 47 | 1013.5 |
| 20260503130511 | 10 | 221 | 1.6 | 6.4 | 0.00 | 0.00 | 0.00 | 47 | 1013.4 |
| 20260503110512 | 0 | 338 | 0.0 | 3.2 | 0.00 | 0.00 | 0.00 | 81 | 1013.7 |
| 20260503090503 | 0 | 338 | 0.0 | 0.0 | 0.00 | 0.00 | 0.00 | 81 | 1014.3 |
| 20260503081514 | 0 | 338 | 0.0 | 0.0 | 0.00 | 0.00 | 0.00 | 81 | 1014.6 |
| 20260503081006 | 0 | 338 | 0.0 | 0.0 | 0.00 | 0.00 | 0.00 | 81 | 1014.6 |
| 20260503080506 | 0 | 338 | 0.0 | 0.0 | 0.00 | 0.00 | 0.00 | 81 | 1014.6 |
| 20260503072503 | 0 | 338 | 0.0 | 0.0 | 0.00 | 0.00 | 0.00 | 81 | 1014.8 |
| 20260503072004 | 0 | 338 | 0.0 | 0.0 | 0.00 | 0.00 | 0.00 | 80 | 1014.8 |
| 20260503071517 | 0 | 338 | 0.0 | 0.0 | 0.00 | 0.00 | 0.00 | 80 | 1014.7 |
| 20260503071004 | 0 | 338 | 0.0 | 0.0 | 0.00 | 0.00 | 0.00 | 80 | 1014.8 |
| 20260503070506 | 0 | 338 | 0.0 | 0.0 | 0.00 | 0.00 | 0.00 | 81 | 1014.7 |
| 20260503055005 | 0 | 338 | 0.0 | 0.0 | 0.00 | 0.00 | 0.00 | 79 | 1015.4 |
| 20260503054526 | 0 | 338 | 0.0 | 0.0 | 0.00 | 0.00 | 0.00 | 78 | 1015.4 |
| 20260503054006 | 1 | 338 | 0.0 | 0.0 | 0.00 | 0.00 | 0.00 | 78 | 1015.4 |
| 20260503053503 | 1 | 338 | 0.0 | 0.0 | 0.00 | 0.00 | 0.00 | 77 | 1015.4 |
| 20260503053013 | 1 | 338 | 0.0 | 0.0 | 0.00 | 0.00 | 0.00 | 78 | 1015.4 |
| 20260503052504 | 1 | 338 | 0.0 | 0.0 | 0.00 | 0.00 | 0.00 | 77 | 1015.4 |
| 20260503052009 | 1 | 338 | 0.0 | 0.0 | 0.00 | 0.00 | 0.00 | 77 | 1015.5 |
| 20260503051512 | 1 | 338 | 0.0 | 0.0 | 0.00 | 0.00 | 0.00 | 77 | 1015.5 |
| 20260503051003 | 1 | 338 | 0.0 | 0.0 | 0.00 | 0.00 | 0.00 | 77 | 1015.5 |
| 20260503050505 | 1 | 338 | 0.0 | 0.0 | 0.00 | 0.00 | 0.00 | 76 | 1015.5 |
| 20260503050011 | 1 | 338 | 0.0 | 0.0 | 0.00 | 0.00 | 0.00 | 77 | 1015.6 |
| 20260503045509 | 1 | 338 | 0.0 | 0.0 | 0.00 | 0.00 | 0.00 | 76 | 1015.6 |
| 20260503045005 | 1 | 338 | 0.0 | 0.0 | 0.00 | 0.00 | 0.00 | 76 | 1015.6 |
| 20260503044514 | 1 | 338 | 0.0 | 0.0 | 0.00 | 0.00 | 0.00 | 76 | 1015.6 |
| 20260503044006 | 1 | 338 | 0.0 | 0.0 | 0.00 | 0.00 | 0.00 | 75 | 1015.6 |
| 20260503043506 | 1 | 338 | 0.0 | 0.0 | 0.00 | 0.00 | 0.00 | 76 | 1015.6 |
| 20260503043015 | 1 | 338 | 0.0 | 0.0 | 0.00 | 0.00 | 0.00 | 76 | 1015.7 |
| 20260503042507 | 1 | 338 | 0.0 | 0.0 | 0.00 | 0.00 | 0.00 | 75 | 1015.7 |
| 20260503042010 | 1 | 338 | 0.0 | 0.0 | 0.00 | 0.00 | 0.00 | 75 | 1015.7 |
| 20260503041514 | 1 | 338 | 0.0 | 0.0 | 0.00 | 0.00 | 0.00 | 75 | 1015.6 |
| 20260503041007 | 2 | 338 | 0.0 | 0.0 | 0.00 | 0.00 | 0.00 | 75 | 1015.7 |
| 20260503040511 | 2 | 338 | 0.0 | 0.0 | 0.00 | 0.00 | 0.00 | 74 | 1015.7 |
| 20260503040014 | 2 | 338 | 0.0 | 0.0 | 0.00 | 0.00 | 0.00 | 74 | 1015.8 |
| 20260503035506 | 2 | 338 | 0.0 | 0.0 | 0.00 | 0.00 | 0.00 | 75 | 1015.8 |
| 20260503035009 | 2 | 338 | 0.0 | 0.0 | 0.00 | 0.00 | 0.00 | 75 | 1015.8 |
| 20260503034516 | 2 | 338 | 0.0 | 0.0 | 0.00 | 0.00 | 0.00 | 74 | 1015.8 |
| 20260503034006 | 2 | 338 | 0.0 | 0.0 | 0.00 | 0.00 | 0.00 | 74 | 1015.8 |
| 20260503033507 | 2 | 338 | 0.0 | 0.0 | 0.00 | 0.00 | 0.00 | 74 | 1015.9 |
| 20260503033023 | 2 | 338 | 0.0 | 0.0 | 0.00 | 0.00 | 0.00 | 74 | 1015.9 |
| 20260503032506 | 2 | 338 | 0.0 | 0.0 | 0.00 | 0.00 | 0.00 | 73 | 1015.9 |
| 20260503032009 | 2 | 338 | 0.0 | 0.0 | 0.00 | 0.00 | 0.00 | 72 | 1015.9 |
| 20260503031516 | 2 | 338 | 0.0 | 0.0 | 0.00 | 0.00 | 0.00 | 73 | 1015.9 |
| 20260503031007 | 2 | 338 | 0.0 | 0.0 | 0.00 | 0.00 | 0.00 | 73 | 1016.0 |
| 20260503030510 | 2 | 338 | 0.0 | 0.0 | 0.00 | 0.00 | 0.00 | 71 | 1016.0 |
| 20260503030016 | 2 | 338 | 0.0 | 0.0 | 0.00 | 0.00 | 0.00 | 70 | 1016.0 |
| 20260503025509 | 2 | 338 | 0.0 | 0.0 | 0.00 | 0.00 | 0.00 | 69 | 1016.0 |
| 20260503025008 | 2 | 338 | 0.0 | 0.0 | 0.00 | 0.00 | 0.00 | 69 | 1016.0 |
| 20260503024515 | 2 | 338 | 0.0 | 0.0 | 0.00 | 0.00 | 0.00 | 69 | 1016.1 |
| 20260503024003 | 2 | 338 | 0.0 | 0.0 | 0.00 | 0.00 | 0.00 | 69 | 1016.0 |
| 20260503023509 | 3 | 338 | 0.0 | 0.0 | 0.00 | 0.00 | 0.00 | 68 | 1016.1 |
| 20260503023019 | 3 | 338 | 0.0 | 0.0 | 0.00 | 0.00 | 0.00 | 67 | 1016.2 |
| 20260503022507 | 3 | 338 | 0.0 | 0.0 | 0.00 | 0.00 | 0.00 | 67 | 1016.2 |
| 20260503022013 | 3 | 338 | 0.0 | 0.0 | 0.00 | 0.00 | 0.00 | 66 | 1016.3 |
| 20260503021517 | 3 | 338 | 0.0 | 0.0 | 0.00 | 0.00 | 0.00 | 65 | 1016.1 |
| 20260503021009 | 3 | 338 | 0.0 | 0.0 | 0.00 | 0.00 | 0.00 | 65 | 1016.2 |
| 20260503020509 | 3 | 338 | 0.0 | 0.0 | 0.00 | 0.00 | 0.00 | 65 | 1016.1 |
| 20260503020016 | 3 | 338 | 0.0 | 0.0 | 0.00 | 0.00 | 0.00 | 64 | 1016.1 |
| 20260503015505 | 3 | 338 | 0.0 | 0.0 | 0.00 | 0.00 | 0.00 | 64 | 1016.1 |
| 20260503015006 | 3 | 338 | 0.0 | 0.0 | 0.00 | 0.00 | 0.00 | 63 | 1016.0 |
| 20260503014517 | 4 | 338 | 0.0 | 0.0 | 0.00 | 0.00 | 0.00 | 61 | 1016.0 |
| 20260503014007 | 4 | 338 | 0.0 | 0.0 | 0.00 | 0.00 | 0.00 | 61 | 1016.0 |
| 20260503013507 | 4 | 338 | 0.0 | 0.0 | 0.00 | 0.00 | 0.00 | 61 | 1016.0 |
| 20260503013015 | 4 | 338 | 0.0 | 0.0 | 0.00 | 0.00 | 0.00 | 59 | 1016.0 |
| 20260503012507 | 5 | 338 | 0.0 | 0.0 | 0.00 | 0.00 | 0.00 | 59 | 1016.0 |
| 20260503012009 | 5 | 338 | 0.0 | 0.0 | 0.00 | 0.00 | 0.00 | 58 | 1015.9 |
| 20260503011520 | 5 | 338 | 0.0 | 0.0 | 0.00 | 0.00 | 0.00 | 58 | 1015.9 |
| 20260503011004 | 5 | 338 | 0.0 | 0.0 | 0.00 | 0.00 | 0.00 | 56 | 1015.9 |
| 20260503010508 | 5 | 338 | 0.0 | 0.0 | 0.00 | 0.00 | 0.00 | 54 | 1015.9 |
| 20260503010016 | 6 | 338 | 0.0 | 0.0 | 0.00 | 0.00 | 0.00 | 52 | 1016.0 |
| 20260503005506 | 6 | 338 | 0.0 | 0.0 | 0.00 | 0.00 | 0.00 | 53 | 1015.9 |
| 20260503005012 | 6 | 338 | 0.0 | 0.0 | 0.00 | 0.00 | 0.00 | 52 | 1015.8 |
| 20260503004525 | 6 | 338 | 0.0 | 0.0 | 0.00 | 0.00 | 0.00 | 53 | 1015.7 |
| 20260503004007 | 6 | 338 | 0.0 | 0.0 | 0.00 | 0.00 | 0.00 | 53 | 1015.7 |
| 20260503003507 | 7 | 338 | 0.0 | 0.0 | 0.00 | 0.00 | 0.00 | 51 | 1015.9 |
| 20260503003036 | 7 | 338 | 0.0 | 0.0 | 0.00 | 0.00 | 0.00 | 50 | 1015.8 |
| 20260503002507 | 7 | 338 | 0.0 | 0.0 | 0.00 | 0.00 | 0.00 | 49 | 1015.7 |
| 20260503002008 | 7 | 338 | 0.0 | 0.0 | 0.00 | 0.00 | 0.00 | 49 | 1015.6 |
| 20260503001527 | 7 | 338 | 0.0 | 0.0 | 0.00 | 0.00 | 0.00 | 46 | 1015.6 |
| 20260503001007 | 7 | 338 | 0.0 | 0.0 | 0.00 | 0.00 | 0.00 | 47 | 1015.6 |
| 20260503000506 | 8 | 338 | 0.0 | 1.6 | 0.00 | 0.00 | 0.00 | 45 | 1015.6 |
| 20260503000019 | 8 | 338 | 0.0 | 3.2 | 0.00 | 0.00 | 0.00 | 43 | 1015.7 |
| 20260502235510 | 8 | 20 | 0.0 | 3.2 | 0.00 | 0.00 | 0.00 | 41 | 1015.8 |
| 20260502235008 | 8 | 326 | 0.0 | 6.4 | 0.00 | 0.00 | 0.00 | 41 | 1015.7 |
| 20260502234523 | 8 | 305 | 0.0 | 6.4 | 0.00 | 0.00 | 0.00 | 41 | 1015.6 |
| 20260502234006 | 8 | 301 | 1.6 | 6.4 | 0.00 | 0.00 | 0.00 | 40 | 1015.6 |
| 20260502233508 | 8 | 352 | 1.6 | 3.2 | 0.00 | 0.00 | 0.00 | 40 | 1015.7 |
| 20260502233024 | 8 | 325 | 0.0 | 3.2 | 0.00 | 0.00 | 0.00 | 43 | 1015.6 |
| 20260502232507 | 8 | 340 | 0.0 | 3.2 | 0.00 | 0.00 | 0.00 | 41 | 1015.7 |
| 20260502232009 | 8 | 352 | 1.6 | 6.4 | 0.00 | 0.00 | 0.00 | 40 | 1015.7 |
| 20260502231520 | 8 | 46 | 0.0 | 8.0 | 0.00 | 0.00 | 0.00 | 39 | 1015.8 |
| 20260502231004 | 8 | 274 | 0.0 | 8.0 | 0.00 | 0.00 | 0.00 | 43 | 1015.7 |
| 20260502230508 | 8 | 336 | 0.0 | 4.8 | 0.00 | 0.00 | 0.00 | 42 | 1015.8 |
| 20260502230017 | 8 | 232 | 1.6 | 4.8 | 0.00 | 0.00 | 0.00 | 41 | 1015.8 |
| 20260502225508 | 8 | 5 | 0.0 | 4.8 | 0.00 | 0.00 | 0.00 | 43 | 1015.8 |
| 20260502225014 | 8 | 13 | 0.0 | 4.8 | 0.00 | 0.00 | 0.00 | 43 | 1015.8 |
| 20260502224517 | 8 | 327 | 1.6 | 4.8 | 0.00 | 0.00 | 0.00 | 42 | 1015.8 |
| 20260502224009 | 8 | 337 | 1.6 | 6.4 | 0.00 | 0.00 | 0.00 | 41 | 1015.8 |
| 20260502223511 | 8 | 235 | 0.0 | 6.4 | 0.00 | 0.00 | 0.00 | 41 | 1015.9 |
| 20260502223020 | 8 | 271 | 1.6 | 4.8 | 0.00 | 0.00 | 0.00 | 41 | 1015.9 |
| 20260502222508 | 8 | 300 | 0.0 | 6.4 | 0.00 | 0.00 | 0.00 | 39 | 1015.9 |
| 20260502222007 | 8 | 243 | 1.6 | 8.0 | 0.00 | 0.00 | 0.00 | 40 | 1015.9 |
| 20260502221521 | 8 | 257 | 4.8 | 8.0 | 0.00 | 0.00 | 0.00 | 39 | 1015.9 |
| 20260502221007 | 8 | 297 | 1.6 | 6.4 | 0.00 | 0.00 | 0.00 | 40 | 1015.8 |
| 20260502220509 | 8 | 251 | 3.2 | 8.0 | 0.00 | 0.00 | 0.00 | 41 | 1015.8 |
| 20260502220016 | 8 | 352 | 3.2 | 8.0 | 0.00 | 0.00 | 0.00 | 41 | 1015.7 |
| 20260502215512 | 8 | 223 | 1.6 | 6.4 | 0.00 | 0.00 | 0.00 | 42 | 1015.8 |
| 20260502215009 | 8 | 65 | 1.6 | 4.8 | 0.00 | 0.00 | 0.00 | 41 | 1015.8 |
| 20260502214520 | 8 | 236 | 0.0 | 4.8 | 0.00 | 0.00 | 0.00 | 39 | 1016.0 |
| 20260502214002 | 8 | 337 | 1.6 | 6.4 | 0.00 | 0.00 | 0.00 | 38 | 1016.0 |
| 20260502213504 | 8 | 331 | 3.2 | 6.4 | 0.00 | 0.00 | 0.00 | 37 | 1016.0 |
| 20260502213006 | 8 | 248 | 1.6 | 6.4 | 0.00 | 0.00 | 0.00 | 39 | 1016.0 |
| 20260502212502 | 8 | 352 | 3.2 | 6.4 | 0.00 | 0.00 | 0.00 | 39 | 1016.0 |
| 20260502212005 | 8 | 352 | 0.0 | 6.4 | 0.00 | 0.00 | 0.00 | 44 | 1016.0 |
| 20260502211514 | 8 | 9 | 1.6 | 6.4 | 0.00 | 0.00 | 0.00 | 40 | 1016.0 |
| 20260502211003 | 8 | 40 | 1.6 | 9.7 | 0.00 | 0.00 | 0.00 | 39 | 1016.0 |
| 20260502210507 | 8 | 173 | 3.2 | 12.9 | 0.00 | 0.00 | 0.00 | 39 | 1015.9 |
| 20260502210014 | 8 | 250 | 3.2 | 12.9 | 0.00 | 0.00 | 0.00 | 41 | 1015.9 |
| 20260502205507 | 8 | 340 | 1.6 | 4.8 | 0.00 | 0.00 | 0.00 | 40 | 1015.9 |
| 20260502205007 | 8 | 346 | 1.6 | 4.8 | 0.00 | 0.00 | 0.00 | 41 | 1016.1 |
| 20260502204519 | 8 | 285 | 1.6 | 4.8 | 0.00 | 0.00 | 0.00 | 40 | 1016.2 |
| 20260502204007 | 8 | 19 | 1.6 | 3.2 | 0.00 | 0.00 | 0.00 | 41 | 1016.2 |
| 20260502203510 | 8 | 324 | 1.6 | 8.0 | 0.00 | 0.00 | 0.00 | 42 | 1016.3 |
| 20260502203005 | 8 | 291 | 0.0 | 8.0 | 0.00 | 0.00 | 0.00 | 40 | 1016.3 |
| 20260502202504 | 8 | 36 | 3.2 | 6.4 | 0.00 | 0.00 | 0.00 | 39 | 1016.3 |
| 20260502202004 | 8 | 56 | 1.6 | 6.4 | 0.00 | 0.00 | 0.00 | 39 | 1016.3 |
| 20260502201506 | 8 | 352 | 3.2 | 6.4 | 0.00 | 0.00 | 0.00 | 39 | 1016.4 |
| 20260502201003 | 8 | 342 | 1.6 | 6.4 | 0.00 | 0.00 | 0.00 | 39 | 1016.4 |
| 20260502200506 | 8 | 348 | 1.6 | 6.4 | 0.00 | 0.00 | 0.00 | 39 | 1016.4 |
| 20260502200011 | 8 | 43 | 1.6 | 6.4 | 0.00 | 0.00 | 0.00 | 39 | 1016.4 |
| 20260502195507 | 8 | 296 | 1.6 | 6.4 | 0.00 | 0.00 | 0.00 | 40 | 1016.5 |
| 20260502195008 | 8 | 221 | 1.6 | 8.0 | 0.00 | 0.00 | 0.00 | 40 | 1016.6 |
| 20260502194521 | 8 | 309 | 3.2 | 8.0 | 0.00 | 0.00 | 0.00 | 40 | 1016.7 |
| 20260502194008 | 8 | 352 | 1.6 | 6.4 | 0.00 | 0.00 | 0.00 | 42 | 1016.7 |